,,,PA_Meas_PMT16A,,PR_Meas_QMR101_102,,RH_Meas_QMH101,,SR_Meas_QMS101,,TA_Meas_QMH101,,GenWind,,GenWind,
date,time,status,PA,status,PR,status,RH,status,SR,status,TA,status,DirAvg,status,SpdAvg,
2011-10-03, 00:00:05,VALID,1005.33,VALID,0,VALID,86.0156,VALID,0,VALID,26.2329,VALID,69,VALID,0.842188,
2011-10-03, 00:01:05,VALID,1005.31,VALID,0,VALID,85.7868,VALID,0,VALID,26.2349,VALID,79,VALID,1.05195,
2011-10-03, 00:02:05,VALID,1005.29,VALID,0,VALID,86.008,VALID,0,VALID,26.2349,VALID,76,VALID,0.146875,
2011-10-03, 00:03:05,VALID,1005.27,VALID,0,VALID,86.069,VALID,0,VALID,26.2349,VALID,114,VALID,0.439453,
2011-10-03, 00:04:05,VALID,1005.25,VALID,0,VALID,86.5878,VALID,0,VALID,26.2564,VALID,114,VALID,0.05625,
2011-10-03, 00:05:05,VALID,1005.26,VALID,0,VALID,86.2903,VALID,0,VALID,26.194,VALID,112,VALID,0.640625,
2011-10-03, 00:06:05,VALID,1005.23,VALID,0,VALID,85.8936,VALID,0,VALID,26.1959,VALID,110,VALID,0.852344,
2011-10-03, 00:07:05,VALID,1005.2,VALID,0,VALID,85.8173,VALID,0,VALID,26.2349,VALID,91,VALID,1.03867,
2011-10-03, 00:08:05,VALID,1005.19,VALID,0,VALID,85.9546,VALID,0,VALID,26.2329,VALID,112,VALID,0.277734,
2011-10-03, 00:09:05,VALID,1005.15,VALID,0,VALID,85.6571,VALID,0,VALID,26.194,VALID,94,VALID,0.541016,
2011-10-03, 00:10:05,VALID,1005.14,VALID,0,VALID,85.535,VALID,0,VALID,26.2544,VALID,98,VALID,0.923437,
2011-10-03, 00:11:05,VALID,1005.1,VALID,0,VALID,85.3901,VALID,0,VALID,26.2329,VALID,74,VALID,0.622656,
2011-10-03, 00:12:05,VALID,1005.12,VALID,0,VALID,85.4053,VALID,0,VALID,26.2719,VALID,100,VALID,0.805859,
2011-10-03, 00:13:05,VALID,1005.1,VALID,0,VALID,85.7868,VALID,0,VALID,26.2719,VALID,104,VALID,1.20508,
2011-10-03, 00:14:05,VALID,1005.08,VALID,0,VALID,85.5732,VALID,0,VALID,26.2719,VALID,78,VALID,0.366797,
2011-10-03, 00:15:05,VALID,1005.08,VALID,0,VALID,85.5884,VALID,0,VALID,26.2739,VALID,77,VALID,0.36875,
2011-10-03, 00:16:05,VALID,1005.09,VALID,0,VALID,85.123,VALID,0,VALID,26.2719,VALID,95,VALID,0.780078,
2011-10-03, 00:17:05,VALID,1005.1,VALID,0,VALID,84.8789,VALID,0,VALID,26.3323,VALID,104,VALID,0.923047,
2011-10-03, 00:18:05,VALID,1005.07,VALID,0,VALID,85.0773,VALID,0,VALID,26.3323,VALID,98,VALID,0.891016,
2011-10-03, 00:19:05,VALID,1005.04,VALID,0,VALID,84.7645,VALID,0,VALID,26.3713,VALID,129,VALID,1.48555,
2011-10-03, 00:20:05,VALID,1005.03,VALID,0,VALID,85.1307,VALID,0,VALID,26.3907,VALID,111,VALID,1.16875,
2011-10-03, 00:21:05,VALID,1005,VALID,0,VALID,85.1154,VALID,0,VALID,26.3713,VALID,114,VALID,0.759766,
2011-10-03, 00:22:05,VALID,1005,VALID,0,VALID,84.9171,VALID,0,VALID,26.3713,VALID,98,VALID,1.24727,
2011-10-03, 00:23:05,VALID,1004.98,VALID,0,VALID,85.1841,VALID,0,VALID,26.3713,VALID,91,VALID,1.10508,
2011-10-03, 00:24:05,VALID,1004.97,VALID,0,VALID,84.8484,VALID,0,VALID,26.3713,VALID,105,VALID,1.27383,
2011-10-03, 00:25:05,VALID,1004.95,VALID,0,VALID,85.1688,VALID,0,VALID,26.3713,VALID,97,VALID,0.833594,
2011-10-03, 00:26:05,VALID,1004.91,VALID,0,VALID,85.2985,VALID,0,VALID,26.3303,VALID,111,VALID,0.673828,
2011-10-03, 00:27:05,VALID,1004.91,VALID,0,VALID,85.5274,VALID,0,VALID,26.3323,VALID,84,VALID,1.00937,
2011-10-03, 00:28:05,VALID,1004.91,VALID,0,VALID,85.6418,VALID,0,VALID,26.3128,VALID,102,VALID,0.923437,
2011-10-03, 00:29:05,VALID,1004.89,VALID,0,VALID,85.5655,VALID,0,VALID,26.2933,VALID,98,VALID,0.766016,
2011-10-03, 00:30:05,VALID,1004.87,VALID,0,VALID,85.2451,VALID,0,VALID,26.2913,VALID,104,VALID,1.20859,
2011-10-03, 00:31:05,VALID,1004.86,VALID,0,VALID,85.4816,VALID,0,VALID,26.3323,VALID,89,VALID,0.499219,
2011-10-03, 00:32:05,VALID,1004.85,VALID,0,VALID,85.4053,VALID,0,VALID,26.3128,VALID,73,VALID,0.728516,
2011-10-03, 00:33:05,VALID,1004.87,VALID,0,VALID,85.2756,VALID,0,VALID,26.2933,VALID,86,VALID,0.576172,
2011-10-03, 00:34:05,VALID,1004.83,VALID,0,VALID,85.5198,VALID,0,VALID,26.3128,VALID,94,VALID,0.74375,
2011-10-03, 00:35:04,VALID,1004.8,VALID,0,VALID,85.3138,VALID,0,VALID,26.3128,VALID,55,VALID,0.531641,
2011-10-03, 00:36:04,VALID,1004.79,VALID,0,VALID,85.2451,VALID,0,VALID,26.3343,VALID,69,VALID,0.877734,
2011-10-03, 00:37:04,VALID,1004.79,VALID,0,VALID,85.207,VALID,0,VALID,26.3518,VALID,59,VALID,0.800781,
2011-10-03, 00:38:04,VALID,1004.79,VALID,0,VALID,85.1688,VALID,0,VALID,26.3713,VALID,63,VALID,0.344531,
2011-10-03, 00:39:04,VALID,1004.77,VALID,0,VALID,85.3367,VALID,0,VALID,26.3518,VALID,63,VALID,0,
2011-10-03, 00:40:04,VALID,1004.78,VALID,0,VALID,85.4129,VALID,0,VALID,26.3323,VALID,63,VALID,0.0296875,
2011-10-03, 00:41:04,VALID,1004.77,VALID,0,VALID,85.2375,VALID,0,VALID,26.3128,VALID,85,VALID,0.583594,
2011-10-03, 00:42:04,VALID,1004.74,VALID,0,VALID,85.3061,VALID,0,VALID,26.3128,VALID,101,VALID,0.85625,
2011-10-03, 00:43:04,VALID,1004.72,VALID,0,VALID,85.7639,VALID,0,VALID,26.2933,VALID,101,VALID,0.0597656,
2011-10-03, 00:44:04,VALID,1004.73,VALID,0,VALID,85.6647,VALID,0,VALID,26.2933,VALID,100,VALID,0.214062,
2011-10-03, 00:45:04,VALID,1004.73,VALID,0,VALID,86.1301,VALID,0,VALID,26.2953,VALID,94,VALID,0.00703125,
2011-10-03, 00:46:04,VALID,1004.71,VALID,0,VALID,85.9851,VALID,0,VALID,26.2739,VALID,94,VALID,0.341797,
2011-10-03, 00:47:04,VALID,1004.69,VALID,0,VALID,85.6876,VALID,0,VALID,26.2739,VALID,82,VALID,0.712109,
2011-10-03, 00:48:04,VALID,1004.72,VALID,0,VALID,85.6952,VALID,0,VALID,26.2933,VALID,50,VALID,0.489453,
2011-10-03, 00:49:04,VALID,1004.72,VALID,0,VALID,85.5045,VALID,0,VALID,26.3128,VALID,83,VALID,1.58594,
2011-10-03, 00:50:04,VALID,1004.7,VALID,0,VALID,85.9012,VALID,0,VALID,26.3498,VALID,124,VALID,0.702344,
2011-10-03, 00:51:04,VALID,1004.69,VALID,0,VALID,85.4129,VALID,0,VALID,26.4102,VALID,78,VALID,0.725391,
2011-10-03, 00:52:04,VALID,1004.71,VALID,0,VALID,85.329,VALID,0,VALID,26.4297,VALID,69,VALID,0.458594,
2011-10-03, 00:53:04,VALID,1004.69,VALID,0,VALID,85.1917,VALID,0,VALID,26.3887,VALID,100,VALID,0.794922,
2011-10-03, 00:54:04,VALID,1004.66,VALID,0,VALID,85.3748,VALID,0,VALID,26.4317,VALID,110,VALID,0.561328,
2011-10-03, 00:55:04,VALID,1004.64,VALID,0,VALID,84.9552,VALID,0,VALID,26.4687,VALID,91,VALID,0.712891,
2011-10-03, 00:56:04,VALID,1004.64,VALID,0,VALID,85.4663,VALID,0,VALID,26.4687,VALID,92,VALID,0.474609,
2011-10-03, 00:57:04,VALID,1004.61,VALID,0,VALID,85.0773,VALID,0,VALID,26.4901,VALID,120,VALID,1.06016,
2011-10-03, 00:58:04,VALID,1004.6,VALID,0,VALID,85.1536,VALID,0,VALID,26.4881,VALID,133,VALID,1.35156,
2011-10-03, 00:59:04,VALID,1004.56,VALID,0,VALID,84.8179,VALID,0,VALID,26.5271,VALID,100,VALID,1.3582,
2011-10-03, 01:00:04,VALID,1004.59,VALID,0,VALID,84.6501,VALID,0,VALID,26.5876,VALID,130,VALID,2.20898,
2011-10-03, 01:01:04,VALID,1004.56,VALID,0,VALID,84.3907,VALID,0,VALID,26.6245,VALID,120,VALID,2.97187,
2011-10-03, 01:02:04,VALID,1004.55,VALID,0,VALID,84.6043,VALID,0,VALID,26.6635,VALID,129,VALID,2.83008,
2011-10-03, 01:03:04,VALID,1004.55,VALID,0,VALID,84.5127,VALID,0,VALID,26.683,VALID,113,VALID,2.18984,
2011-10-03, 01:04:04,VALID,1004.54,VALID,0,VALID,85.4053,VALID,0,VALID,26.6635,VALID,141,VALID,3.60586,
2011-10-03, 01:05:04,VALID,1004.54,VALID,0,VALID,85.5884,VALID,0,VALID,26.644,VALID,149,VALID,3.09297,
2011-10-03, 01:06:04,VALID,1004.53,VALID,0,VALID,86.1377,VALID,0,VALID,26.605,VALID,116,VALID,1.3043,
2011-10-03, 01:07:04,VALID,1004.5,VALID,0,VALID,86.5496,VALID,0,VALID,26.5876,VALID,132,VALID,1.85469,
2011-10-03, 01:08:04,VALID,1004.49,VALID,0,VALID,86.9616,VALID,0,VALID,26.5291,VALID,133,VALID,2.22461,
2011-10-03, 01:09:04,VALID,1004.45,VALID,0,VALID,87.2286,VALID,0,VALID,26.4881,VALID,108,VALID,2.08281,
2011-10-03, 01:10:04,VALID,1004.45,VALID,0,VALID,87.5338,VALID,0,VALID,26.4492,VALID,141,VALID,2.15937,
2011-10-03, 01:11:04,VALID,1004.44,VALID,0,VALID,87.7855,VALID,0,VALID,26.4122,VALID,122,VALID,1.4832,
2011-10-03, 01:12:04,VALID,1004.39,VALID,0,VALID,87.8847,VALID,0,VALID,26.3907,VALID,132,VALID,1.93555,
2011-10-03, 01:13:04,VALID,1004.41,VALID,0,VALID,87.9305,VALID,0,VALID,26.4122,VALID,132,VALID,3.3625,
2011-10-03, 01:14:04,VALID,1004.41,VALID,0,VALID,87.816,VALID,0,VALID,26.3713,VALID,127,VALID,2.29141,
2011-10-03, 01:15:04,VALID,1004.37,VALID,0,VALID,87.9686,VALID,0,VALID,26.3518,VALID,140,VALID,1.38047,
2011-10-03, 01:16:04,VALID,1004.38,VALID,0,VALID,88.2585,VALID,0,VALID,26.3518,VALID,152,VALID,1.87695,
2011-10-03, 01:17:04,VALID,1004.38,VALID,0,VALID,88.1746,VALID,0,VALID,26.3323,VALID,120,VALID,1.72852,
2011-10-03, 01:18:04,VALID,1004.36,VALID,0,VALID,88.3958,VALID,0,VALID,26.2913,VALID,107,VALID,1.07852,
2011-10-03, 01:19:04,VALID,1004.32,VALID,0,VALID,88.4264,VALID,0.0815089,VALID,26.2504,VALID,87,VALID,1.07383,
2011-10-03, 01:20:04,VALID,1004.32,VALID,0,VALID,88.495,VALID,0,VALID,26.2719,VALID,101,VALID,1.04297,
2011-10-03, 01:21:04,VALID,1004.32,VALID,0,VALID,88.6323,VALID,0,VALID,26.2524,VALID,129,VALID,2.15703,
2011-10-03, 01:22:04,VALID,1004.28,VALID,0,VALID,88.6018,VALID,0,VALID,26.2349,VALID,122,VALID,1.85156,
2011-10-03, 01:23:04,VALID,1004.27,VALID,0,VALID,88.7086,VALID,0,VALID,26.2544,VALID,108,VALID,1.70352,
2011-10-03, 01:24:04,VALID,1004.27,VALID,0,VALID,88.6323,VALID,0,VALID,26.2349,VALID,126,VALID,1.49102,
2011-10-03, 01:25:04,VALID,1004.24,VALID,0,VALID,88.5103,VALID,0,VALID,26.2134,VALID,126,VALID,2.42422,
2011-10-03, 01:26:04,VALID,1004.25,VALID,0,VALID,88.6323,VALID,0,VALID,26.194,VALID,132,VALID,1.32734,
2011-10-03, 01:27:04,VALID,1004.21,VALID,0,VALID,88.3882,VALID,0,VALID,26.1745,VALID,130,VALID,2.64375,
2011-10-03, 01:28:04,VALID,1004.25,VALID,0,VALID,88.495,VALID,0,VALID,26.1959,VALID,123,VALID,2.32422,
2011-10-03, 01:29:04,VALID,1004.29,VALID,0,VALID,88.4416,VALID,0,VALID,26.1959,VALID,112,VALID,2.18555,
2011-10-03, 01:30:04,VALID,1004.27,VALID,0,VALID,88.701,VALID,0.0815089,VALID,26.155,VALID,115,VALID,1.1418,
2011-10-03, 01:31:04,VALID,1004.21,VALID,0,VALID,88.4492,VALID,0.0815089,VALID,26.1355,VALID,99,VALID,2.01797,
2011-10-03, 01:32:04,VALID,1004.26,VALID,0,VALID,88.5103,VALID,0,VALID,26.157,VALID,132,VALID,1.7707,
2011-10-03, 01:33:04,VALID,1004.23,VALID,0,VALID,88.1746,VALID,0,VALID,26.155,VALID,120,VALID,2.56602,
2011-10-03, 01:34:04,VALID,1004.24,VALID,0,VALID,88.3806,VALID,0,VALID,26.157,VALID,113,VALID,1.77969,
2011-10-03, 01:35:04,VALID,1004.23,VALID,0,VALID,88.1441,VALID,0,VALID,26.157,VALID,99,VALID,1.65391,
2011-10-03, 01:36:04,VALID,1004.21,VALID,0,VALID,88.1441,VALID,0,VALID,26.1355,VALID,104,VALID,1.42344,
2011-10-03, 01:37:04,VALID,1004.19,VALID,0,VALID,88.3729,VALID,0,VALID,26.157,VALID,102,VALID,0.801953,
2011-10-03, 01:38:04,VALID,1004.19,VALID,0,VALID,88.3653,VALID,0,VALID,26.118,VALID,115,VALID,1.39609,
2011-10-03, 01:39:04,VALID,1004.16,VALID,0,VALID,88.701,VALID,0,VALID,26.0985,VALID,115,VALID,1.01055,
2011-10-03, 01:40:04,VALID,1004.17,VALID,0,VALID,88.7925,VALID,0,VALID,26.0791,VALID,122,VALID,1.82969,
2011-10-03, 01:41:04,VALID,1004.16,VALID,0,VALID,88.8307,VALID,0,VALID,26.0791,VALID,127,VALID,1.30703,
2011-10-03, 01:42:04,VALID,1004.17,VALID,0,VALID,89.0061,VALID,0,VALID,26.0576,VALID,139,VALID,1.35234,
2011-10-03, 01:43:04,VALID,1004.15,VALID,0,VALID,88.4416,VALID,0,VALID,26.0576,VALID,130,VALID,2.58984,
2011-10-03, 01:44:04,VALID,1004.19,VALID,0,VALID,88.4874,VALID,0,VALID,26.0576,VALID,97,VALID,1.60156,
2011-10-03, 01:45:04,VALID,1004.19,VALID,0,VALID,88.2356,VALID,0,VALID,26.0576,VALID,117,VALID,2.47422,
2011-10-03, 01:46:04,VALID,1004.17,VALID,0,VALID,88.3348,VALID,0,VALID,26.0791,VALID,145,VALID,1.70742,
2011-10-03, 01:47:04,VALID,1004.17,VALID,0,VALID,88.3729,VALID,0,VALID,26.0596,VALID,117,VALID,1.44687,
2011-10-03, 01:48:04,VALID,1004.16,VALID,0,VALID,87.9381,VALID,0,VALID,26.0381,VALID,133,VALID,2.36875,
2011-10-03, 01:49:04,VALID,1004.18,VALID,0,VALID,87.8466,VALID,0,VALID,26.0576,VALID,117,VALID,2.77813,
2011-10-03, 01:50:04,VALID,1004.15,VALID,0,VALID,87.221,VALID,0,VALID,26.0576,VALID,111,VALID,2.05234,
2011-10-03, 01:51:04,VALID,1004.1,VALID,0,VALID,86.5344,VALID,0,VALID,26.0985,VALID,105,VALID,2.51836,
2011-10-03, 01:52:04,VALID,1004.13,VALID,0,VALID,86.3894,VALID,0,VALID,26.0966,VALID,120,VALID,3.17578,
2011-10-03, 01:53:04,VALID,1004.08,VALID,0,VALID,86.4123,VALID,0,VALID,26.1375,VALID,125,VALID,1.88828,
2011-10-03, 01:54:04,VALID,1004.07,VALID,0,VALID,85.741,VALID,0,VALID,26.0966,VALID,127,VALID,2.32578,
2011-10-03, 01:55:04,VALID,1004.05,VALID,0,VALID,85.7028,VALID,0,VALID,26.116,VALID,117,VALID,2.18203,
2011-10-03, 01:56:04,VALID,1004.1,VALID,0,VALID,85.9012,VALID,0,VALID,26.118,VALID,118,VALID,1.58633,
2011-10-03, 01:57:04,VALID,1004.09,VALID,0,VALID,85.8325,VALID,0,VALID,26.118,VALID,103,VALID,1.42734,
2011-10-03, 01:58:04,VALID,1004.07,VALID,0,VALID,85.9165,VALID,0,VALID,26.118,VALID,149,VALID,1.95508,
2011-10-03, 01:59:04,VALID,1004.06,VALID,0,VALID,85.8096,VALID,0,VALID,26.0985,VALID,109,VALID,1.17305,
2011-10-03, 02:00:04,VALID,1004.1,VALID,0,VALID,85.5503,VALID,0,VALID,26.0985,VALID,121,VALID,2.23125,
2011-10-03, 02:01:04,VALID,1004.08,VALID,0,VALID,85.4969,VALID,0,VALID,26.0985,VALID,104,VALID,1.93125,
2011-10-03, 02:02:04,VALID,1004.07,VALID,0,VALID,85.268,VALID,0,VALID,26.118,VALID,126,VALID,2.10625,
2011-10-03, 02:03:04,VALID,1004.06,VALID,0,VALID,85.3061,VALID,0,VALID,26.116,VALID,127,VALID,1.6457,
2011-10-03, 02:04:04,VALID,1004.05,VALID,0,VALID,85.0315,VALID,0,VALID,26.118,VALID,132,VALID,1.69492,
2011-10-03, 02:05:04,VALID,1004.05,VALID,0,VALID,85.1002,VALID,0,VALID,26.0966,VALID,121,VALID,1.77813,
2011-10-03, 02:06:04,VALID,1004.05,VALID,0,VALID,85.0544,VALID,0,VALID,26.118,VALID,133,VALID,1.31367,
2011-10-03, 02:07:04,VALID,1004.06,VALID,0,VALID,85.2909,VALID,0,VALID,26.0791,VALID,100,VALID,1.08984,
2011-10-03, 02:08:04,VALID,1004.07,VALID,0,VALID,85.1536,VALID,0,VALID,26.0985,VALID,87,VALID,1.64844,
2011-10-03, 02:09:04,VALID,1004,VALID,0,VALID,84.7569,VALID,0,VALID,26.0985,VALID,107,VALID,1.78867,
2011-10-03, 02:10:04,VALID,1004.02,VALID,0,VALID,84.8255,VALID,0,VALID,26.0771,VALID,124,VALID,1.74023,
2011-10-03, 02:11:04,VALID,1004.05,VALID,0,VALID,84.2991,VALID,0,VALID,26.0771,VALID,86,VALID,1.85078,
2011-10-03, 02:12:04,VALID,1004.04,VALID,0,VALID,84.1313,VALID,0,VALID,26.118,VALID,109,VALID,2.85547,
2011-10-03, 02:13:04,VALID,1004.01,VALID,0,VALID,84.1618,VALID,0,VALID,26.1375,VALID,111,VALID,2.08516,
2011-10-03, 02:14:04,VALID,1004,VALID,0,VALID,84.1694,VALID,0,VALID,26.116,VALID,122,VALID,1.50234,
2011-10-03, 02:15:04,VALID,1004.01,VALID,0,VALID,84.0016,VALID,0,VALID,26.116,VALID,109,VALID,2.30586,
2011-10-03, 02:16:04,VALID,1004,VALID,0,VALID,83.7651,VALID,0,VALID,26.116,VALID,106,VALID,2.5207,
2011-10-03, 02:17:04,VALID,1003.98,VALID,0,VALID,83.5362,VALID,0,VALID,26.1355,VALID,114,VALID,2.49609,
2011-10-03, 02:18:04,VALID,1003.96,VALID,0,VALID,83.5744,VALID,0,VALID,26.1765,VALID,116,VALID,1.66641,
2011-10-03, 02:19:04,VALID,1003.94,VALID,0,VALID,83.3531,VALID,0,VALID,26.1765,VALID,98,VALID,3.24883,
2011-10-03, 02:20:04,VALID,1003.93,VALID,0,VALID,83.254,VALID,0,VALID,26.1959,VALID,103,VALID,2.24062,
2011-10-03, 02:21:04,VALID,1003.93,VALID,0,VALID,83.4218,VALID,0,VALID,26.155,VALID,108,VALID,1.26016,
2011-10-03, 02:22:04,VALID,1003.89,VALID,0,VALID,82.8268,VALID,0,VALID,26.1765,VALID,122,VALID,3.15937,
2011-10-03, 02:23:04,VALID,1003.89,VALID,0,VALID,83.1472,VALID,0,VALID,26.2154,VALID,140,VALID,2.40937,
2011-10-03, 02:24:04,VALID,1003.87,VALID,0,VALID,82.9183,VALID,0,VALID,26.194,VALID,115,VALID,1.68359,
2011-10-03, 02:25:04,VALID,1003.87,VALID,0,VALID,82.9336,VALID,0,VALID,26.2134,VALID,101,VALID,2.2582,
2011-10-03, 02:26:04,VALID,1003.83,VALID,0,VALID,82.5216,VALID,0,VALID,26.2524,VALID,111,VALID,3.23672,
2011-10-03, 02:27:04,VALID,1003.82,VALID,0,VALID,82.6894,VALID,0,VALID,26.2933,VALID,125,VALID,1.74609,
2011-10-03, 02:28:04,VALID,1003.83,VALID,0,VALID,82.6437,VALID,0,VALID,26.2719,VALID,115,VALID,1.48164,
2011-10-03, 02:29:04,VALID,1003.8,VALID,0,VALID,82.8573,VALID,0,VALID,26.2739,VALID,132,VALID,1.24375,
2011-10-03, 02:30:04,VALID,1003.8,VALID,0,VALID,83.0861,VALID,0,VALID,26.2114,VALID,108,VALID,1.40781,
2011-10-03, 02:31:04,VALID,1003.77,VALID,0,VALID,83.3989,VALID,0,VALID,26.2564,VALID,119,VALID,1.11641,
2011-10-03, 02:32:04,VALID,1003.78,VALID,0,VALID,82.8115,VALID,0,VALID,26.2134,VALID,127,VALID,1.66602,
2011-10-03, 02:33:04,VALID,1003.76,VALID,0,VALID,82.8496,VALID,0,VALID,26.2329,VALID,103,VALID,1.59258,
2011-10-03, 02:34:04,VALID,1003.77,VALID,0,VALID,83.0251,VALID,0,VALID,26.2544,VALID,116,VALID,1.12852,
2011-10-03, 02:35:04,VALID,1003.77,VALID,0,VALID,82.9488,VALID,0,VALID,26.2544,VALID,105,VALID,1.27539,
2011-10-03, 02:36:04,VALID,1003.73,VALID,0,VALID,82.4606,VALID,0,VALID,26.2933,VALID,141,VALID,2.65703,
2011-10-03, 02:37:04,VALID,1003.72,VALID,0,VALID,82.1402,VALID,0,VALID,26.2913,VALID,92,VALID,1.61641,
2011-10-03, 02:38:04,VALID,1003.72,VALID,0,VALID,82.2088,VALID,0,VALID,26.2719,VALID,126,VALID,2.0543,
2011-10-03, 02:39:04,VALID,1003.73,VALID,0,VALID,82.4758,VALID,0,VALID,26.2719,VALID,99,VALID,1.41055,
2011-10-03, 02:40:04,VALID,1003.71,VALID,0,VALID,82.2622,VALID,0,VALID,26.2739,VALID,113,VALID,1.16055,
2011-10-03, 02:41:04,VALID,1003.72,VALID,0,VALID,82.5826,VALID,0,VALID,26.2933,VALID,104,VALID,1.5125,
2011-10-03, 02:42:04,VALID,1003.7,VALID,0,VALID,82.3843,VALID,0,VALID,26.2719,VALID,113,VALID,1.26719,
2011-10-03, 02:43:04,VALID,1003.7,VALID,0,VALID,82.3232,VALID,0,VALID,26.3128,VALID,119,VALID,2.28008,
2011-10-03, 02:44:04,VALID,1003.69,VALID,0,VALID,82.308,VALID,0,VALID,26.2933,VALID,118,VALID,1.82422,
2011-10-03, 02:45:04,VALID,1003.69,VALID,0,VALID,82.4529,VALID,0,VALID,26.3303,VALID,134,VALID,2.23984,
2011-10-03, 02:46:04,VALID,1003.71,VALID,0,VALID,82.3919,VALID,0,VALID,26.3498,VALID,122,VALID,2.38594,
2011-10-03, 02:47:04,VALID,1003.75,VALID,0,VALID,82.5292,VALID,0,VALID,26.3303,VALID,115,VALID,2.13203,
2011-10-03, 02:48:04,VALID,1003.75,VALID,0,VALID,82.8573,VALID,0,VALID,26.3713,VALID,135,VALID,3.21055,
2011-10-03, 02:49:04,VALID,1003.74,VALID,0,VALID,82.8039,VALID,0,VALID,26.3887,VALID,103,VALID,2.75391,
2011-10-03, 02:50:04,VALID,1003.72,VALID,0,VALID,83.0327,VALID,0,VALID,26.3693,VALID,134,VALID,1.77148,
2011-10-03, 02:51:04,VALID,1003.73,VALID,0,VALID,83.3226,VALID,0,VALID,26.3303,VALID,115,VALID,1.98984,
2011-10-03, 02:52:04,VALID,1003.73,VALID,0,VALID,83.5515,VALID,0,VALID,26.3498,VALID,116,VALID,2.35195,
2011-10-03, 02:53:04,VALID,1003.76,VALID,0,VALID,83.9177,VALID,0,VALID,26.3498,VALID,117,VALID,1.74883,
2011-10-03, 02:54:04,VALID,1003.78,VALID,0,VALID,83.9253,VALID,0,VALID,26.3303,VALID,107,VALID,2.13516,
2011-10-03, 02:55:04,VALID,1003.75,VALID,0,VALID,84.7721,VALID,0,VALID,26.3518,VALID,148,VALID,2.03398,
2011-10-03, 02:56:04,VALID,1003.77,VALID,0,VALID,84.5967,VALID,0,VALID,26.3713,VALID,118,VALID,2.41875,
2011-10-03, 02:57:04,VALID,1003.82,VALID,0,VALID,85.0315,VALID,0,VALID,26.3518,VALID,122,VALID,1.39922,
2011-10-03, 02:58:04,VALID,1003.82,VALID,0,VALID,85.1459,VALID,0,VALID,26.3498,VALID,123,VALID,2.50781,
2011-10-03, 02:59:04,VALID,1003.77,VALID,0,VALID,85.1841,VALID,0,VALID,26.3907,VALID,104,VALID,2.13477,
2011-10-03, 03:00:04,VALID,1003.77,VALID,0,VALID,85.2146,VALID,0,VALID,26.4102,VALID,70,VALID,2.38867,
2011-10-03, 03:01:04,VALID,1003.81,VALID,0,VALID,85.4816,VALID,0,VALID,26.4102,VALID,107,VALID,2.41094,
2011-10-03, 03:02:04,VALID,1003.8,VALID,0,VALID,85.4053,VALID,0,VALID,26.4297,VALID,102,VALID,1.63906,
2011-10-03, 03:03:04,VALID,1003.78,VALID,0,VALID,85.2604,VALID,0,VALID,26.4102,VALID,54,VALID,1.54492,
2011-10-03, 03:04:04,VALID,1003.78,VALID,0,VALID,85.4892,VALID,0,VALID,26.4102,VALID,134,VALID,1.38398,
2011-10-03, 03:05:04,VALID,1003.8,VALID,0,VALID,85.0849,VALID,0,VALID,26.4082,VALID,137,VALID,2.62422,
2011-10-03, 03:06:04,VALID,1003.79,VALID,0,VALID,84.94,VALID,0,VALID,26.4492,VALID,116,VALID,2.63633,
2011-10-03, 03:07:04,VALID,1003.85,VALID,0,VALID,84.9781,VALID,0,VALID,26.4277,VALID,129,VALID,2.45937,
2011-10-03, 03:08:04,VALID,1003.87,VALID,0,VALID,85.1612,VALID,0,VALID,26.4492,VALID,120,VALID,1.47656,
2011-10-03, 03:09:04,VALID,1003.85,VALID,0,VALID,85.2451,VALID,0,VALID,26.4687,VALID,116,VALID,1.2043,
2011-10-03, 03:10:04,VALID,1003.84,VALID,0,VALID,85.0696,VALID,0,VALID,26.4492,VALID,118,VALID,2.55977,
2011-10-03, 03:11:04,VALID,1003.93,VALID,0,VALID,85.1612,VALID,0,VALID,26.4492,VALID,102,VALID,2.72656,
2011-10-03, 03:12:04,VALID,1003.93,VALID,0,VALID,85.0162,VALID,0,VALID,26.4667,VALID,108,VALID,2.11133,
2011-10-03, 03:13:04,VALID,1003.9,VALID,0,VALID,85.062,VALID,0,VALID,26.4881,VALID,131,VALID,1.94492,
2011-10-03, 03:14:04,VALID,1003.89,VALID,0,VALID,85.001,VALID,0,VALID,26.4881,VALID,98,VALID,2.02344,
2011-10-03, 03:15:04,VALID,1003.92,VALID,0,VALID,85.3367,VALID,0,VALID,26.4881,VALID,131,VALID,1.76211,
2011-10-03, 03:16:04,VALID,1003.92,VALID,0,VALID,85.2604,VALID,0,VALID,26.4667,VALID,84,VALID,1.60039,
2011-10-03, 03:17:04,VALID,1003.91,VALID,0,VALID,85.268,VALID,0,VALID,26.4667,VALID,130,VALID,2.12383,
2011-10-03, 03:18:04,VALID,1003.92,VALID,0,VALID,84.9781,VALID,0,VALID,26.5076,VALID,136,VALID,2.66641,
2011-10-03, 03:19:04,VALID,1003.91,VALID,0,VALID,84.5433,VALID,0,VALID,26.5271,VALID,114,VALID,2.86953,
2011-10-03, 03:20:04,VALID,1003.92,VALID,0,VALID,84.8026,VALID,0,VALID,26.5271,VALID,119,VALID,2.2457,
2011-10-03, 03:21:04,VALID,1003.88,VALID,0,VALID,84.6806,VALID,0,VALID,26.5661,VALID,130,VALID,4.02305,
2011-10-03, 03:22:04,VALID,1003.91,VALID,0,VALID,84.6501,VALID,0,VALID,26.5661,VALID,103,VALID,2.86367,
2011-10-03, 03:23:04,VALID,1003.94,VALID,0,VALID,84.6043,VALID,0,VALID,26.605,VALID,132,VALID,4.48828,
2011-10-03, 03:24:04,VALID,1003.92,VALID,0,VALID,84.6424,VALID,0,VALID,26.605,VALID,118,VALID,2.18203,
2011-10-03, 03:25:04,VALID,1003.92,VALID,0,VALID,85.1002,VALID,0,VALID,26.5855,VALID,117,VALID,2.09531,
2011-10-03, 03:26:04,VALID,1003.97,VALID,0,VALID,84.7492,VALID,0,VALID,26.5855,VALID,100,VALID,2.20898,
2011-10-03, 03:27:04,VALID,1003.97,VALID,0,VALID,85.0162,VALID,0,VALID,26.5855,VALID,138,VALID,1.99805,
2011-10-03, 03:28:04,VALID,1003.96,VALID,0,VALID,84.9018,VALID,0,VALID,26.5855,VALID,122,VALID,2.3543,
2011-10-03, 03:29:04,VALID,1003.95,VALID,0,VALID,84.795,VALID,0,VALID,26.5855,VALID,112,VALID,2.92344,
2011-10-03, 03:30:04,VALID,1003.98,VALID,0,VALID,84.6653,VALID,0,VALID,26.6265,VALID,118,VALID,3.4832,
2011-10-03, 03:31:04,VALID,1003.96,VALID,0,VALID,84.9018,VALID,0.0815089,VALID,26.603,VALID,142,VALID,2.33125,
2011-10-03, 03:32:04,VALID,1003.97,VALID,0,VALID,85.0849,VALID,0,VALID,26.603,VALID,119,VALID,1.59141,
2011-10-03, 03:33:04,VALID,1003.96,VALID,0,VALID,85.1383,VALID,0,VALID,26.6265,VALID,86,VALID,1.32852,
2011-10-03, 03:34:04,VALID,1004,VALID,0,VALID,85.3367,VALID,0,VALID,26.605,VALID,136,VALID,2.59961,
2011-10-03, 03:35:04,VALID,1004.03,VALID,0,VALID,85.5426,VALID,0,VALID,26.5641,VALID,131,VALID,2.73125,
2011-10-03, 03:36:04,VALID,1004,VALID,0,VALID,85.5503,VALID,0,VALID,26.5855,VALID,94,VALID,3.06953,
2011-10-03, 03:37:04,VALID,1004.06,VALID,0,VALID,85.6189,VALID,0,VALID,26.5446,VALID,128,VALID,2.30156,
2011-10-03, 03:38:04,VALID,1004.06,VALID,0,VALID,85.8554,VALID,0,VALID,26.5661,VALID,105,VALID,2.99492,
2011-10-03, 03:39:04,VALID,1004.07,VALID,0,VALID,86.0538,VALID,0,VALID,26.5056,VALID,117,VALID,2.13594,
2011-10-03, 03:40:04,VALID,1004.07,VALID,0,VALID,86.3971,VALID,0,VALID,26.4881,VALID,123,VALID,2.80977,
2011-10-03, 03:41:04,VALID,1004.08,VALID,0,VALID,86.5725,VALID,0,VALID,26.4687,VALID,142,VALID,1.97812,
2011-10-03, 03:42:04,VALID,1004.16,VALID,0,VALID,86.2903,VALID,0,VALID,26.4492,VALID,129,VALID,2.72187,
2011-10-03, 03:43:04,VALID,1004.15,VALID,0,VALID,85.9165,VALID,0,VALID,26.4512,VALID,103,VALID,2.86758,
2011-10-03, 03:44:04,VALID,1004.2,VALID,0,VALID,86.069,VALID,0,VALID,26.4297,VALID,123,VALID,3.36797,
2011-10-03, 03:45:04,VALID,1004.2,VALID,0,VALID,86.2216,VALID,0,VALID,26.3713,VALID,115,VALID,3.26641,
2011-10-03, 03:46:04,VALID,1004.21,VALID,0,VALID,86.3894,VALID,0,VALID,26.3713,VALID,118,VALID,3.55586,